Other Public Products
Issued by NWS Grand Forks, ND

Home | Current Version | Previous Version | Text Only | Print | Product List | Glossary Off
Versions: 1 2 3 4 5 6 7 8 9 10 11 12 13 14 15 16 17 18 19 20 21 22 23 24 25 26 27 28 29 30 31 32 33 34 35 36 37 38 39 40 41 42 43 44 45 46 47 48 49 50

000
FPUS83 KFGF 030610
OPUFGF
PRAIRIE TO PINES WEATHER ROUNDUP
NATIONAL WEATHER SERVICE EASTERN NORTH DAKOTA/GRAND FORKS ND
100 AM CDT SUN MAY 03 2015

 **SATELLITE DATA USED TO AUGMENT SKY COVER AT AUTOMATED STATIONS**
 *****  WEATHER ACROSS EASTERN NORTH DAKOTA  *****

CITY           SKY/WX    TMP DP  RH WIND       PRES   REMARKS
GRAND FORKS    CLEAR     47  43  86 W6        29.60R
6HR MIN TEMP:  47; 6HR MAX TEMP:  71; 6HR PCP:  0.01;

GRAND FORKS AF CLEAR     55  43  62 N12       29.61R
GRAND CITY NWS   N/A     50 N/A N/A NW3         N/A
BUXTON         NOT AVBL
DEVILS LAKE    CLEAR     52  36  54 N10       29.68R
6HR MIN TEMP:  52; 6HR MAX TEMP:  79;

FARGO          PTCLDY    58  50  75 S12       29.62R
6HR MIN TEMP:  58; 6HR MAX TEMP:  68; 6HR PCP:  0.01;

WAHPETON ARPT  CLOUDY    63  50  63 S12       29.67F
$$

 *****  WEATHER ACROSS CENTRAL AND WESTERN NORTH DAKOTA  *****

CITY           SKY/WX    TMP DP  RH WIND       PRES   REMARKS
JAMESTOWN      MOCLDY    53  38  56 NW6       29.65S
6HR MIN TEMP:  51; 6HR MAX TEMP:  80;

BISMARCK       MOCLDY    58  35  42 NW3       29.73R
6HR MIN TEMP:  56; 6HR MAX TEMP:  80;

MINOT          PTCLDY    54  36  50 NW17      29.76R
6HR MIN TEMP:  51; 6HR MAX TEMP:  74;

MINOT AFB      PTCLDY    53  37  53 NW17      29.75R
6HR MIN TEMP:  53; 6HR MAX TEMP:  74;

GARRISON         N/A     52  39  61 N10       29.77R
6HR MIN TEMP:  51; 6HR MAX TEMP:  78;

WILLISTON      MOCLDY    52  34  50 N10       29.84R
6HR MIN TEMP:  52; 6HR MAX TEMP:  75;

DICKINSON      CLOUDY    56  35  45 NE14      29.78R
6HR MIN TEMP:  51; 6HR MAX TEMP:  75;

HETTINGER      PTCLDY    47  30  51 N7        29.76R
6HR MIN TEMP:  41; 6HR MAX TEMP:  76;

$$

 *****  OTHER OBSERVATIONS NORTHEAST NORTH DAKOTA  *****

CITY           SKY/WX    TMP DP  RH WIND       PRES   REMARKS
WALHALLA       FAIR      50  39  66 NW7       29.67R
LANGDON        FAIR      48  37  66 N9        29.69R
CAVALIER       FAIR      55  41  58 N14       29.65R
GRAFTON        FAIR      57  41  54 N14       29.62S
CANDO          FAIR      52  36  54 N9        29.71R
FORT TOTTEN      N/A     56  37  48 N3        29.95S
ROLLA          NOT AVBL
RUGBY          NOT AVBL
 ***** THE ABOVE OBSERVATIONS ARE NON NWS ARE NOT QUALITY
        CONTROLLED AND MAY MIS-REPORT RAIN FOR SNOW...
$$

 *****  OTHER OBSERVATIONS SOUTHEAST NORTH DAKOTA *****

CITY           SKY/WX    TMP DP  RH WIND       PRES   REMARKS
COOPERSTOWN    NOT AVBL
VALLEY CITY    FAIR      55  37  50 NW10      29.64S
OAKES            N/A     66  41  39 E5        29.65S
GWINNER        CLEAR     64  45  48 SW6       29.67R
BUFFALO        NOT AVBL
WYNDMERE       NOT AVBL
 ***** THE ABOVE OBSERVATIONS ARE NON NWS ARE NOT QUALITY
       CONTROLLED AND MAY MIS-REPORT RAIN FOR SNOW...
$$

  *****  WEATHER ACROSS NORTHERN MINNESOTA  *****

CITY           SKY/WX    TMP DP  RH WIND       PRES   REMARKS
FLAG ISLAND    CLOUDY    54  50  87 S5        29.60R
WARROAD        PTCLDY    57  46  67 CALM      29.62S
ROSEAU         CLEAR     63  45  51 W5        29.62S
HALLOCK        PTCLDY    57  37  47 N15       29.61R
THF RVR FALLS  CLEAR     55  46  71 S5        29.62R
6HR MIN TEMP:  54; 6HR MAX TEMP:  70; 6HR PCP:  0.01;

HALSTAD        NOT AVBL
FOSSTON        NOT AVBL
BAUDETTE       CLOUDY    62  45  53 N6        29.62R
6HR MIN TEMP:  60; 6HR MAX TEMP:  70; 6HR PCP:  0.02;

WASKISH        MOCLDY    64  45  48 CALM      29.60F
CROOKSTON      CLEAR     54  46  76 SW6       29.61S
$$
  *****  WEATHER ACROSS CENTRAL AND WEST MINNESOTA  *****

CITY           SKY/WX    TMP DP  RH WIND       PRES   REMARKS
BEMIDJI        PTCLDY    61  44  54 S10       29.62S
PARK RAPIDS    MOCLDY    61  47  59 S13       29.65R
6HR MIN TEMP:  57; 6HR MAX TEMP:  76; 6HR PCP:  0.03;

WADENA         NOT AVBL
DETROIT LAKES  MOCLDY    63  50  63 S13       29.65F
MOORHEAD       PTCLDY    61  52  72 S12       29.63R
FERGUS FALLS   CLOUDY    61  54  77 S8        29.70R
ELBOW LAKE     MOCLDY    60  53  78 SE13      29.67S
6HR MIN TEMP:  59; 6HR MAX TEMP:  79; 6HR PCP:  0.03;

MORRIS MN      CLOUDY    61  54  77 SE7       29.72S THUNDER
STAPLES        CLOUDY    57  50  77 SE6       29.66F
WHEATON        CLOUDY    63  48  59 S10       29.69R
$$
  *****  WEATHER ELSEWHERE ACROSS MINNESOTA  *****

CITY           SKY/WX    TMP DP  RH WIND       PRES   REMARKS
DULUTH         MOCLDY    52  42  69 SE9       29.70F
6HR MIN TEMP:  52; 6HR MAX TEMP:  69;

INTRNTL FALLS  CLOUDY    57  38  48 CALM      29.62S
6HR MIN TEMP:  56; 6HR MAX TEMP:  76;

ELY            CLOUDY    61  39  44 S6        29.69R
CLOQUET        MOCLDY    50  41  71 CALM      29.70F
BRAINERD       MOCLDY    57  50  77 S7        29.66F
6HR MIN TEMP:  57; 6HR MAX TEMP:  76; 6HR PCP:  0.02;

HIBBING        CLOUDY    64  40  41 N6        29.70R
6HR MIN TEMP:  61; 6HR MAX TEMP:  75;

ALEXANDRIA     CLOUDY    59  52  77 SE13      29.72S
6HR MIN TEMP:  59; 6HR MAX TEMP:  78; 6HR PCP:  0.01;

SAINT CLOUD    PTCLDY    58  47  66 VRB5      29.73F
6HR MIN TEMP:  58; 6HR MAX TEMP:  77;

MINNEAPOLIS    CLEAR     66  51  58 S12G17    29.79R
6HR MIN TEMP:  66; 6HR MAX TEMP:  78;

$$

  *****  WEATHER ACROSS SOUTH DAKOTA  *****

CITY           SKY/WX    TMP DP  RH WIND       PRES   REMARKS
SIOUX FALLS    MOCLDY    63  54  72 S10G18    29.70F
6HR MIN TEMP:  63; 6HR MAX TEMP:  77;

BROOKINGS      CLEAR     63  54  72 S15       29.69F
WATERTOWN      CLOUDY    64  53  67 S10       29.69R
6HR MIN TEMP:  64; 6HR MAX TEMP:  79;

HURON          MOCLDY    65  52  62 NW13      29.69R
6HR MIN TEMP:  64; 6HR MAX TEMP:  82;

SISSETON         N/A     65  54  67 SW14      29.64R
ABERDEEN       MOCLDY    60  48  64 CALM      29.65R
6HR MIN TEMP:  60; 6HR MAX TEMP:  85; 6HR PCP:  0.01;

MITCHELL       CLOUDY    66  56  70 S15       29.66S
PIERRE         CLEAR     60  32  34 NE6       29.66F
6HR MIN TEMP:  57; 6HR MAX TEMP:  83;

MOBRIDGE       PTCLDY    59  32  36 NE10      29.65S
RAPID CITY     MOCLDY    52  32  46 NW7       29.76R
6HR MIN TEMP:  51; 6HR MAX TEMP:  77;

$$

  *****  SOME WEATHER IN NEARBY STATES *****

CITY           SKY/WX    TMP DP  RH WIND       PRES   REMARKS
GLASGOW MT     MOCLDY    45  35  68 N7        29.91R
6HR MIN TEMP:  45; 6HR MAX TEMP:  66;

GREAT FALLS MT CLOUDY    45  27  49 NE13      29.99R
6HR MIN TEMP:  44; 6HR MAX TEMP:  62;

CHEYENNE WY    CLOUDY    56  35  45 W16       29.94F
6HR MIN TEMP:  55; 6HR MAX TEMP:  64;

SCOTTSBLUFF NE CLOUDY    61  40  45 CALM      29.82R
6HR MIN TEMP:  58; 6HR MAX TEMP:  81;

OMAHA NE       TSTM      62  58  86 W6        29.87R
6HR MIN TEMP:  62; 6HR MAX TEMP:  72; 6HR PCP:  0.30;

DES MOINES IA  CLOUDY    60  50  69 S12       29.84F
6HR MIN TEMP:  58; 6HR MAX TEMP:  65;

DAVENPORT IA   CLOUDY    61  47  59 S7        29.96S
6HR MIN TEMP:  60; 6HR MAX TEMP:  70;

CHICAGO IL     MOCLDY    61  39  44 SW6       29.97R
6HR MIN TEMP:  58; 6HR MAX TEMP:  74;

EAU CLAIRE WI  CLEAR     64  49  57 SW12      29.82R
6HR MIN TEMP:  64; 6HR MAX TEMP:  76;

LA CROSSE WI   CLEAR     64  51  62 S10       29.87R
6HR MIN TEMP:  64; 6HR MAX TEMP:  77;

$$

  *****  SOME NATIONAL WEATHER *****

CITY           SKY/WX    TMP DP  RH WIND       PRES   REMARKS
LA GUARDIA NY  PTCLDY    52  36  54 SW6       30.04F


USA.gov is the U.S. government's official web portal to all federal, state and local government web resources and services.